This demonstration page uses our WeatherBlox Daily Observations layout. Learn more.

Left ArrowRight Arrow

44.8408, -93.29828

Hourly Observations for March 16, 2020

Temp ( °F °C ) Dew Point ( °F °C ) Humidity (%) Winds ( mph kmh ) Pressure ( in mb ) Visibility ( mi km ) Precip ( " mm )
12:53 am 00:53 Cloudy 35 1.7 25 -3.9 67 67 S 13 20 30.37 1029 10 16 0.00 0.00
1:53 am 01:53 Cloudy 35 1.7 25 -3.9 67 67 S 12 19 30.35 1028 10 16 0.00 0.00
2:53 am 02:53 Cloudy 34 1.1 26 -3.3 73 73 SSW 8 13 30.34 1027 10 16 0.00 0.00
3:45 am 03:45 Cloudy 34 1.1 25 -3.9 70 70 S 8 13 30.33 1027 10 16 0.00 0.00
3:53 am 03:53 Cloudy 34 1.1 25 -3.9 70 70 SSW 7 11 30.31 1026 10 16 0.00 0.00
4:53 am 04:53 Cloudy 34 1.1 26 -3.3 73 73 SSW 9 15 30.28 1025 10 16 0.00 0.00
5:53 am 05:53 Cloudy 34 1.1 27 -2.8 76 76 SW 8 13 30.27 1025 10 16 0.00 0.00
6:34 am 06:34 Cloudy 34 1.1 28 -2.2 79 79 SW 9 15 30.28 1025 9 14 0.00 0.00
6:53 am 06:53 Cloudy with Drizzle 34 1.1 29 -1.7 82 82 SW 8 13 30.26 1025 9 14 0.00 0.00
7:53 am 07:53 Cloudy with Drizzle 34 1.1 30 -1.1 85 85 SW 6 9 30.26 1025 6 10 0.00 0.00
8:01 am 08:01 Cloudy with Drizzle 34 1.1 30 -1.1 85 85 SSW 7 11 30.27 1025 5 8 0.00 0.00
8:53 am 08:53 Cloudy 34 1.1 30 -1.1 85 85 SW 8 13 30.24 1024 8 13 0.00 0.00
9:23 am 09:23 Cloudy 34 1.1 29 -1.7 82 82 SW 7 11 30.25 1024 9 14 0.00 0.00
9:53 am 09:53 Cloudy with Light Snow 35 1.7 29 -1.7 78 78 SW 10 17 30.24 1024 10 16 0.00 0.00
10:48 am 10:48 Cloudy with Light Snow 36 2 28 -2 75 75 WSW 10 17 30.25 1024 3 4 0.00 0.00
10:53 am 10:53 Cloudy with Light Snow 35 1.7 29 -1.7 78 78 SW 8 13 30.23 1024 3 5 0.00 0.00
11:14 am 11:14 Cloudy with Light Snow 35 1.7 30 -1.1 82 82 WSW 8 13 30.24 1024 3 4 0.01 0.25
11:29 am 11:29 Cloudy with Light Snow 35 1.7 30 -1.1 82 82 WSW 12 19 30.24 1024 4 6 0.01 0.25
11:53 am 11:53 Cloudy with Light Snow 35 1.7 31 -0.6 85 85 WSW 8 13 30.22 1023 3 4 0.01 0.25
12:08 pm 12:08 Cloudy with Light Snow 36 2.2 32 0 86 86 WSW 10 17 30.22 1023 4 6 0.00 0.00
12:53 pm 12:53 Cloudy 36 2.2 31 -0.6 82 82 W 13 20 30.20 1023 10 16 0.00 0.00
1:12 pm 13:12 Cloudy with Light Snow 37 2.8 31 -0.6 79 79 WSW 8 13 30.21 1023 10 16 0.00 0.00
1:36 pm 13:36 Cloudy with Light Snow 37 2.8 32 0 82 82 W 9 15 30.20 1023 6 10 0.00 0.00
1:53 pm 13:53 Cloudy with Light Wintry Mix 37 2.8 32 0 82 82 WSW 8 13 30.18 1022 8 13 0.00 0.00
2:02 pm 14:02 Cloudy 37 2.8 32 0 82 82 WSW 10 17 30.20 1023 10 16 0.00 0.00
2:32 pm 14:32 Cloudy 38 3.3 32 0 79 79 SW 8 13 30.17 1022 10 16 0.00 0.00
2:53 pm 14:53 Cloudy 38 3.3 31 -0.6 76 76 WSW 8 13 30.15 1021 10 16 0.00 0.00
3:53 pm 15:53 Cloudy 38 3.3 30 -1.1 73 73 WNW 12 19 30.14 1021 10 16 0.00 0.00
4:53 pm 16:53 Cloudy 38 3.3 30 -1.1 73 73 W 14 22 30.14 1021 10 16 0.00 0.00
5:53 pm 17:53 Cloudy 39 3.9 30 -1.1 70 70 WNW 10 17 30.13 1020 10 16 0.00 0.00
6:53 pm 18:53 Cloudy 38 3.3 30 -1.1 73 73 WNW 17 28 30.14 1021 10 16 0.00 0.00
7:21 pm 19:21 Cloudy 36 2.2 25 -3.9 64 64 WNW 18 30 30.16 1021 10 16 0.00 0.00
7:53 pm 19:53 Mostly Cloudy 35 1.7 20 -6.7 54 54 WNW 16 26 30.16 1021 10 16 0.00 0.00
8:53 pm 20:53 Mostly Clear 32 0 16 -8.9 52 52 WNW 15 24 30.18 1022 10 16 0.00 0.00
9:53 pm 21:53 Mostly Clear 31 -0.6 16 -8.9 54 54 NW 16 26 30.19 1022 10 16 0.00 0.00
10:53 pm 22:53 Mostly Clear 29 -1.7 16 -8.9 58 58 NW 15 24 30.22 1023 10 16 0.00 0.00
11:53 pm 23:53 Mostly Clear 27 -2.8 17 -8.3 66 66 WNW 9 15 30.22 1024 10 16 0.00 0.00

Powered by AerisWeather